Weather History for KLRD - April, 2014

Change the Weather History Date:

Monday, April 21, 2014

  Actual Average Record
Temperature  
Mean Temperature 79 °F 77 °F  
Max Temperature 87 °F 89 °F 102 °F (2011)
Min Temperature 71 °F 66 °F 42 °F (1907)
Degree Days  
Heating Degree Days 0 0  
Month to date heating degree days 5 12  
Since 1 July heating degree days 1095 925  
Cooling Degree Days 14 12  
Month to date cooling degree days 219 221  
Year to date cooling degree days 467 479  
Growing Degree Days 28 (Base 50)    
Moisture  
Dew Point 66 °F    
Average Humidity 68    
Maximum Humidity 84    
Minimum Humidity 48    
Precipitation  
Precipitation 0.00 in 0.06 in 1.97 in (1981)
Month to date precipitation 0.03 0.88  
Year to date precipitation 1.32 3.84  
Sea Level Pressure  
Sea Level Pressure 30.00 in    
Wind  
Wind Speed 9 mph (SE)    
Max Wind Speed 20 mph    
Max Gust Speed 23 mph    
Visibility 10 miles    
Events      
T = Trace of Precipitation, MM = Missing Value Source: NWS Daily Summary

Daily Weather History Graph

Daily Weather History Graph

Search for Another Location

Airport or City:

Trip Planner

Search our weather history database for the weather conditions in past years. The results will help you decide how hot, cold, wet, or windy it might be!

Date:

Astronomy

Apr. 21, 2014 Rise Set
Actual Time 7:07 AM CDT 8:06 PM CDT
Civil Twilight 6:43 AM CDT 8:30 PM CDT
Nautical Twilight 6:14 AM CDT 8:58 PM CDT
Astronomical Twilight 5:45 AM CDT 9:28 PM CDT
Moon 1:29 AM CDT (4/21) 12:42 PM CDT (4/21)
Length of Visible Light 13h 47m
Length of Day
12h 58m
Waning Gibbous, 57% of the Moon is Illuminated
Apr 21
Waning Gibbous
Apr 22
Last Quarter
Apr 29
New
May 6
First Quarter
May 14
Full

Hourly Weather History & Observations

Time (CDT) Temp. Heat Index Dew Point Humidity Pressure Visibility Wind Dir Wind Speed Gust Speed Precip Events Conditions
12:56 AM 73.9 °F - 63.9 °F 71% 30.02 in 10.0 mi SE 9.2 mph - N/A   Overcast
1:56 AM 73.9 °F - 64.9 °F 73% 30.02 in 10.0 mi SSE 11.5 mph - N/A   Overcast
2:56 AM 72.9 °F - 64.9 °F 76% 30.01 in 10.0 mi SE 6.9 mph - N/A   Overcast
3:56 AM 72.9 °F - 63.9 °F 73% 30.00 in 10.0 mi SE 10.4 mph - N/A   Overcast
4:56 AM 72.0 °F - 64.9 °F 78% 30.00 in 10.0 mi ESE 8.1 mph - N/A   Overcast
5:56 AM 72.0 °F - 64.9 °F 78% 29.99 in 10.0 mi ESE 8.1 mph - N/A   Overcast
6:56 AM 72.0 °F - 64.9 °F 78% 30.01 in 10.0 mi ESE 8.1 mph - N/A   Overcast
7:56 AM 70.9 °F - 65.8 °F 84% 30.04 in 10.0 mi SE 8.1 mph - N/A   Overcast
8:56 AM 70.9 °F - 65.8 °F 84% 30.04 in 10.0 mi ESE 8.1 mph - N/A   Overcast
9:56 AM 72.0 °F - 65.8 °F 81% 30.05 in 10.0 mi SE 9.2 mph - N/A   Overcast
10:45 AM 73.4 °F - 66.2 °F 78% 30.08 in 10.0 mi SSE 9.2 mph - N/A   Overcast
10:56 AM 74.8 °F - 65.8 °F 73% 30.05 in 10.0 mi SE 11.5 mph - N/A   Overcast
11:56 AM 79.0 °F - 65.8 °F 64% 30.04 in 10.0 mi SE 12.7 mph - N/A   Mostly Cloudy
12:56 PM 79.9 °F - 65.8 °F 62% 30.03 in 10.0 mi South 10.4 mph - N/A   Overcast
1:56 PM 79.9 °F - 65.8 °F 62% 30.01 in 10.0 mi SSE 9.2 mph - N/A   Overcast
2:20 PM 82.4 °F 84.6 °F 66.2 °F 58% 30.03 in 10.0 mi SSE 8.1 mph - N/A   Overcast
2:56 PM 82.9 °F 85.0 °F 65.8 °F 56% 29.99 in 10.0 mi Variable 4.6 mph - N/A   Mostly Cloudy
3:56 PM 84.9 °F 87.1 °F 65.8 °F 53% 29.95 in 10.0 mi South 8.1 mph - N/A   Overcast
4:56 PM 86.0 °F 87.6 °F 64.9 °F 49% 29.92 in 10.0 mi SE 9.2 mph - N/A   Overcast
5:56 PM 84.9 °F 87.1 °F 65.8 °F 53% 29.93 in 10.0 mi SSE 9.2 mph - N/A   Mostly Cloudy
6:56 PM 82.9 °F 85.0 °F 65.8 °F 56% 29.93 in 10.0 mi SSE 9.2 mph - N/A   Scattered Clouds
7:56 PM 81.0 °F 83.0 °F 65.8 °F 60% 29.96 in 10.0 mi South 6.9 mph - N/A   Mostly Cloudy
8:56 PM 79.9 °F - 66.9 °F 64% 29.98 in 10.0 mi South 8.1 mph - N/A   Partly Cloudy
9:56 PM 79.0 °F - 66.9 °F 66% 29.98 in 10.0 mi South 10.4 mph - N/A   Clear
10:56 PM 77.9 °F - 65.8 °F 66% 29.98 in 10.0 mi South 11.5 mph - N/A   Clear
11:56 PM 75.9 °F - 66.9 °F 74% 29.96 in 10.0 mi East 10.4 mph - N/A   Clear